Wetbulb
59.61 59.41 59.30 58.93 58.76 58.75 58.84 58.97 59.42 59.63 60.07 60.54 60.86 61.19 61.12 61.12 60.12 59.20 54.85 63.16 65.04 69.66 68.66 65.16 64.66 65.44 65.54 62.70 63.75 63.58 52.29 49.37 51.85 53.66 54.31 58.51 57.87 60.67 63.10 60.65 60.62 61.52 64.77 66.16 66.57
58.76 58.82 58.68 58.62 58.41 58.32 58.53 58.63 58.92 59.24 59.70 60.09 60.71 61.02 60.80 60.72 58.48 55.28 67.79 70.03 70.57 70.84 62.76 60.92 61.45 63.54 60.11 60.95 61.47 56.95 51.79 50.16 56.67 58.80 53.76 57.96 58.92 60.46 62.04 60.23 60.08 60.37 65.62 65.80 65.59
58.34 58.33 58.39 58.26 58.41 58.00 58.13 58.17 58.59 59.17 59.49 59.74 60.45 61.00 60.68 59.56 57.51 57.78 70.57 70.10 70.74 70.54 62.32 61.30 64.69 63.35 59.95 58.99 57.85 55.84 50.94 54.17 57.20 58.83 59.49 58.45 60.76 61.59 61.91 58.72 60.50 59.45 61.09 62.97 63.26
58.07 58.26 58.09 57.72 57.77 57.70 57.74 57.94 58.38 59.03 59.19 59.29 60.05 61.20 60.79 58.85 51.21 58.34 70.89 71.42 71.83 67.90 62.61 60.81 61.88 59.99 58.12 56.63 59.84 55.88 58.58 58.21 56.29 58.47 57.79 59.85 61.05 60.80 61.11 61.20 63.48 63.21 63.30 62.99 62.54
57.45 57.61 57.39 57.03 57.14 57.23 57.23 57.46 57.64 58.06 58.21 59.02 60.34 61.20 58.48 55.36 56.02 65.92 71.59 71.19 66.73 62.39 59.95 58.98 57.49 59.46 58.38 59.06 59.32 56.67 58.80 58.84 59.73 59.56 59.43 62.34 59.72 60.40 61.80 64.72 65.49 64.74 64.20 62.60 62.18
56.92 56.77 56.82 56.75 56.58 56.78 56.75 56.50 56.57 56.82 57.63 59.26 60.97 60.70 58.87 51.80 63.40 65.22 62.81 64.41 63.38 60.92 60.87 59.21 55.97 59.73 59.70 58.45 57.06 59.33 59.05 59.19 59.41 58.72 60.39 59.53 59.78 61.43 63.69 66.23 65.09 63.84 62.30 62.38 62.82
56.47 56.30 56.16 56.32 56.29 56.34 56.38 56.09 55.92 56.46 58.32 60.38 62.19 60.60 56.42 55.70 64.73 63.31 62.29 62.70 63.29 62.86 58.46 58.91 59.08 57.22 58.01 57.79 61.16 60.29 56.66 58.45 59.53 60.71 58.98 59.32 55.93 58.36 64.24 64.67 64.18 63.95 63.31 62.65 61.68
56.21 55.89 55.88 56.01 56.00 56.17 56.41 56.13 56.02 57.39 59.55 61.39 63.09 58.71 54.49 61.67 62.44 63.79 63.83 63.67 63.87 61.81 59.99 60.08 59.73 57.33 57.20 58.98 59.44 56.87 56.98 51.82 58.23 59.62 60.72 58.38 50.99 58.60 61.99 61.68 63.08 64.15 63.91 63.26 61.61
56.15 55.51 55.46 55.72 55.92 56.14 55.61 55.18 56.91 59.69 60.87 61.78 58.53 55.69 54.49 64.21 61.10 62.47 62.99 62.08 62.56 61.52 60.71 63.31 58.14 56.05 57.06 54.60 52.00 54.42 48.65 51.46 55.49 58.61 60.57 59.57 54.28 59.57 63.67 61.50 62.09 62.92 63.68 63.26 62.91
55.93 55.13 54.80 55.16 55.42 55.36 54.68 55.44 59.74 59.90 60.74 60.88 61.35 55.04 57.07 57.93 61.47 62.49 62.94 63.59 61.37 60.08 58.72 57.36 55.44 52.33 54.97 50.71 46.31 49.55 50.50 49.52 52.54 56.19 59.08 57.20 56.57 59.20 62.94 61.50 60.31 61.66 63.13 63.25 63.18
55.89 54.92 54.72 54.89 55.10 54.40 52.42 55.03 53.33 54.46 54.76 54.41 54.97 56.94 60.14 61.97 62.88 60.24 62.09 61.77 60.53 58.14 52.69 55.34 51.59 50.03 50.77 52.39 54.53 54.17 51.51 51.57 55.30 58.28 56.20 55.25 55.82 56.92 60.00 61.16 61.55 61.25 61.28 61.42 62.60
55.44 55.06 54.78 54.53 54.39 54.04 52.30 53.97 52.36 52.98 49.50 55.62 56.65 57.14 59.24 60.07 57.83 59.24 60.84 57.67 56.96 53.20 55.08 53.22 49.92 53.92 54.68 54.29 55.57 53.88 51.87 50.36 56.98 58.17 55.72 55.59 54.73 57.10 57.71 57.43 59.84 60.89 61.86 60.53 59.77
54.61 54.39 54.49 54.43 53.67 56.43 54.83 55.14 55.56 56.82 49.00 54.35 56.64 55.61 55.59 56.92 56.65 56.89 58.10 57.43 55.10 53.31 53.65 51.40 54.07 58.36 55.56 52.90 54.62 52.43 52.33 51.45 53.05 55.33 56.23 55.36 53.93 54.17 57.10 58.71 60.94 61.29 61.94 60.67 59.30
54.30 54.09 54.01 53.47 54.79 54.92 54.34 55.96 54.94 57.33 45.73 52.92 54.01 54.97 56.66 56.22 55.40 60.37 60.17 57.68 54.59 51.76 53.47 52.24 55.34 55.15 54.15 54.14 52.25 47.92 54.80 55.67 55.36 51.11 46.34 53.93 45.84 54.47 54.37 56.56 58.39 59.38 59.37 59.25 60.54
53.90 53.99 53.76 53.45 51.49 52.95 56.25 56.01 55.19 56.32 41.51 54.34 52.67 56.94 55.96 54.52 55.57 57.94 61.42 58.09 53.24 53.76 53.26 51.56 52.60 52.28 51.36 53.45 54.11 52.55 56.34 54.88 54.89 51.43 49.51 52.10 46.46 50.77 55.65 53.86 56.16 58.42 59.70 59.29 60.97
53.55 53.56 52.99 53.61 53.19 56.77 58.92 55.71 55.11 46.56 43.38 49.98 51.57 50.57 50.60 53.53 54.66 56.99 58.09 59.21 58.48 54.27 54.02 53.19 55.95 54.26 52.73 54.87 54.70 57.38 54.55 54.33 51.84 50.05 45.06 49.89 48.77 48.45 51.01 54.42 56.17 59.97 60.41 60.18 60.77
53.14 52.72 51.26 54.08 51.08 54.72 56.83 54.19 45.97 43.80 55.98 49.05 48.26 49.21 49.50 51.49 52.76 54.48 54.68 52.83 49.33 48.19 47.64 52.29 53.42 54.60 56.02 51.85 53.35 51.47 48.77 43.02 41.74 41.60 42.30 51.53 47.96 45.74 53.59 57.50 57.34 56.54 59.14 60.02 60.02
51.97 50.99 53.44 56.56 58.03 57.21 55.45 50.74 44.21 54.05 52.28 54.25 51.79 50.14 47.81 50.78 51.93 53.44 52.62 50.11 53.37 52.46 47.56 45.85 46.18 52.79 56.34 53.96 50.02 49.74 50.52 43.59 40.30 39.57 41.93 50.70 47.35 49.78 56.58 56.89 58.74 59.58 59.47 60.51 59.09
50.68 54.41 55.82 59.39 59.42 58.30 52.27 46.64 49.51 53.61 55.08 53.55 50.96 47.48 47.08 49.59 51.42 51.42 51.47 50.98 53.17 52.92 47.72 46.64 48.51 54.82 56.78 55.96 54.41 50.83 47.88 51.55 47.07 45.36 42.37 47.49 51.75 54.80 55.50 56.66 58.74 59.13 58.76 58.98 58.32
49.44 52.95 56.52 59.78 61.52 56.83 50.08 47.68 53.83 57.54 56.04 54.76 49.86 51.20 47.11 48.21 48.66 49.19 50.54 54.62 54.01 55.51 53.96 51.10 45.17 53.47 57.02 57.65 56.78 54.57 54.67 45.80 47.17 39.47 39.93 44.67 48.56 46.90 52.38 56.08 58.35 58.41 58.21 57.43 58.32
52.50 53.53 59.05 60.82 60.36 53.50 46.23 50.47 54.18 57.56 57.25 55.04 53.96 53.85 51.56 50.28 49.69 48.96 51.20 54.28 56.33 54.85 53.19 50.67 49.26 50.11 55.41 52.90 51.22 51.03 49.74 50.83 47.35 46.85 41.30 40.32 44.18 53.37 54.58 55.47 55.16 59.13 57.71 57.92 57.19
52.89 49.13 60.91 60.56 50.46 51.26 47.68 53.08 53.81 55.86 57.56 55.85 56.11 56.70 55.78 55.99 51.06 50.88 51.11 54.31 57.80 57.27 54.34 53.53 51.08 46.77 51.75 55.41 56.11 54.80 52.33 50.57 46.11 44.92 47.35 46.40 44.61 56.45 57.03 56.28 57.72 58.33 58.67 57.96 58.13
49.23 53.28 59.52 59.95 46.36 47.33 52.71 55.09 56.59 55.97 56.26 57.38 56.84 57.93 57.38 54.94 49.34 52.09 56.08 59.88 58.90 56.85 55.06 57.08 49.33 44.80 48.44 50.72 54.75 53.25 53.22 51.85 49.60 49.07 45.56 42.29 45.58 57.22 57.09 55.99 56.78 55.93 58.40 58.63 59.76
49.75 49.39 53.50 56.02 54.15 50.70 50.34 52.32 54.77 56.74 56.24 57.50 57.19 58.14 56.51 54.37 53.73 53.47 54.63 58.46 60.51 59.96 59.48 60.18 53.23 51.38 45.62 48.29 51.58 51.42 55.04 54.18 48.99 44.05 45.75 48.81 49.71 54.40 55.55 56.47 57.46 58.02 58.19 57.81 58.54
51.85 51.00 56.04 50.59 52.23 54.47 52.94 53.55 53.39 54.95 56.20 57.10 55.95 56.89 57.48 52.47 56.14 55.01 58.12 57.12 58.78 58.32 56.57 58.39 51.82 51.63 53.60 54.92 54.46 53.76 53.92 52.73 50.30 50.19 48.98 50.65 51.06 51.98 54.32 55.85 56.10 57.76 58.73 60.10 59.36
48.49 51.38 53.66 51.21 55.65 55.09 52.87 52.93 53.81 55.49 56.41 54.44 54.82 57.59 59.24 56.19 56.02 53.70 56.88 55.24 53.03 56.18 53.36 56.19 50.26 53.26 51.94 54.84 53.52 53.34 53.37 52.57 52.34 52.87 52.39 52.78 52.09 55.85 58.06 58.66 60.02 60.13 60.98 59.24 59.63
56.16 56.29 53.22 50.65 52.39 51.58 52.00 54.36 54.70 55.91 57.56 58.55 57.99 56.78 57.65 59.27 59.48 58.73 59.11 58.95 57.46 54.74 52.67 53.43 52.61 49.70 46.24 52.30 52.35 49.67 51.69 52.94 53.47 54.84 55.31 51.97 53.77 58.12 57.49 58.00 58.07 59.09 60.25 60.39 60.84
MSLP
1020.07 1019.66 1018.97 1018.18 1017.70 1017.08 1016.58 1016.05 1015.40 1014.83 1014.54 1014.14 1013.71 1013.44 1013.20 1012.86 1012.18 1012.46 1011.35 1009.50 1008.90 1008.97 1009.38 1008.90 1008.38 1008.42 1008.31 1008.53 1007.78 1007.44 1007.70 1007.92 1007.74 1007.85 1007.70 1007.54 1007.80 1007.57 1007.82 1008.44 1008.82 1009.22 1010.02 1010.82 1011.22
1020.11 1019.59 1019.18 1018.42 1017.55 1017.14 1016.56 1015.94 1015.33 1014.72 1014.29 1013.94 1013.63 1013.36 1013.12 1012.85 1012.24 1010.90 1009.07 1009.00 1009.08 1008.78 1008.89 1008.46 1008.24 1008.05 1008.50 1008.42 1007.59 1006.56 1007.52 1007.05 1007.09 1007.16 1007.28 1006.98 1007.33 1007.47 1007.87 1008.49 1009.21 1009.78 1010.51 1010.83 1011.22
1019.88 1019.53 1019.16 1018.62 1017.67 1016.93 1016.54 1015.81 1015.35 1014.65 1014.08 1013.80 1013.54 1013.33 1013.14 1012.93 1012.07 1009.26 1008.44 1008.88 1008.90 1008.57 1008.42 1008.62 1007.92 1007.54 1008.28 1008.14 1007.51 1006.54 1006.74 1006.62 1006.64 1006.63 1006.68 1006.96 1007.04 1006.78 1007.59 1008.51 1008.85 1009.58 1010.37 1010.99 1011.57
1020.20 1019.36 1019.00 1018.46 1017.84 1016.84 1016.33 1015.78 1015.14 1014.60 1013.98 1013.58 1013.39 1013.26 1013.08 1012.72 1011.13 1008.57 1008.58 1008.80 1008.70 1008.82 1008.51 1008.52 1008.71 1007.90 1008.90 1008.48 1007.28 1007.07 1006.74 1007.10 1006.71 1006.52 1006.65 1006.87 1006.90 1006.90 1007.18 1007.94 1008.33 1009.24 1010.02 1010.88 1011.66
1020.44 1019.70 1018.89 1018.41 1017.64 1016.91 1016.06 1015.70 1014.84 1014.36 1013.86 1013.47 1013.30 1013.15 1012.71 1011.90 1009.44 1008.26 1008.71 1008.88 1008.84 1008.58 1008.29 1008.00 1008.19 1009.19 1008.89 1007.82 1007.73 1007.83 1007.88 1007.22 1007.26 1007.56 1006.97 1006.72 1008.25 1008.47 1007.70 1007.53 1008.15 1009.06 1009.93 1010.76 1011.54
1020.56 1019.81 1019.13 1018.34 1017.47 1016.84 1015.94 1015.37 1014.50 1013.88 1013.53 1013.27 1013.17 1013.15 1012.55 1010.41 1007.47 1007.74 1008.23 1008.77 1008.49 1008.27 1007.36 1006.95 1006.60 1006.74 1007.50 1007.25 1007.31 1007.24 1007.44 1007.70 1007.16 1007.65 1007.76 1007.44 1009.00 1010.51 1009.01 1008.75 1008.60 1009.21 1010.02 1010.67 1011.29
1020.66 1019.58 1018.84 1018.20 1017.31 1016.54 1015.84 1014.86 1014.08 1013.38 1013.14 1012.96 1012.93 1012.62 1011.30 1008.50 1006.82 1007.13 1007.77 1007.58 1007.14 1007.22 1006.95 1006.20 1005.83 1006.17 1006.19 1006.79 1007.08 1008.04 1008.52 1007.95 1007.80 1007.37 1008.51 1007.57 1008.94 1009.31 1009.26 1009.41 1008.96 1009.27 1009.90 1010.40 1010.90
1020.49 1019.42 1018.61 1018.00 1017.04 1016.19 1015.59 1014.32 1013.38 1012.76 1012.72 1012.55 1012.66 1012.18 1009.96 1006.81 1006.64 1007.02 1006.99 1006.86 1006.28 1006.12 1005.93 1005.68 1005.51 1005.80 1005.96 1005.90 1007.12 1008.08 1009.54 1009.80 1008.47 1008.48 1008.22 1008.92 1011.16 1010.43 1010.28 1010.23 1009.48 1009.32 1009.61 1009.95 1010.33
1020.43 1019.64 1018.67 1017.91 1016.85 1015.98 1014.91 1013.56 1012.50 1012.06 1012.22 1012.19 1012.26 1011.51 1008.78 1006.56 1006.52 1006.31 1006.28 1006.47 1006.17 1005.74 1005.53 1005.17 1005.15 1005.81 1005.89 1006.04 1007.36 1007.88 1009.09 1009.43 1008.49 1006.68 1008.64 1009.52 1012.00 1012.82 1011.93 1012.74 1010.23 1009.46 1009.12 1009.28 1009.63
1020.72 1019.62 1018.64 1017.76 1016.56 1015.69 1014.42 1012.53 1011.70 1011.69 1011.81 1011.61 1011.20 1010.75 1007.93 1006.57 1005.83 1005.76 1005.81 1006.04 1006.32 1006.19 1006.02 1005.51 1005.62 1005.76 1005.77 1006.38 1007.51 1007.82 1008.16 1008.07 1008.11 1008.60 1009.86 1010.84 1012.90 1014.16 1014.02 1012.26 1011.24 1011.12 1010.66 1009.64 1009.53
1020.62 1019.56 1018.60 1017.55 1016.06 1015.62 1014.61 1012.69 1012.18 1012.04 1011.01 1010.71 1009.86 1008.59 1006.50 1006.26 1005.50 1005.60 1005.64 1005.94 1006.23 1006.49 1006.66 1005.82 1006.25 1006.01 1005.31 1005.84 1006.07 1006.35 1007.07 1007.38 1008.89 1010.06 1011.00 1012.74 1015.17 1014.71 1014.56 1012.10 1011.04 1011.57 1013.06 1010.18 1009.85
1020.36 1019.66 1018.66 1017.34 1015.85 1014.69 1015.15 1013.56 1012.01 1011.52 1010.53 1009.37 1008.62 1007.76 1006.67 1006.26 1005.61 1005.55 1005.58 1006.22 1006.55 1006.87 1006.67 1006.57 1005.91 1005.45 1004.95 1004.96 1005.36 1006.12 1006.59 1007.62 1009.35 1010.48 1011.21 1012.00 1013.70 1013.92 1013.70 1013.14 1010.92 1012.49 1012.52 1011.53 1010.15
1020.45 1019.84 1018.92 1017.31 1015.36 1014.13 1013.80 1012.18 1010.89 1010.76 1010.64 1008.52 1007.53 1006.90 1006.26 1006.24 1005.87 1005.75 1005.77 1006.13 1006.62 1006.94 1006.99 1007.25 1006.34 1005.10 1004.91 1004.74 1005.07 1005.70 1006.54 1007.57 1009.02 1010.04 1011.37 1013.08 1013.73 1014.16 1014.72 1013.73 1011.90 1012.06 1011.93 1010.96 1010.08
1020.44 1019.86 1019.25 1017.74 1015.16 1014.73 1013.12 1011.50 1010.98 1010.94 1010.66 1007.69 1006.51 1005.89 1005.90 1006.06 1006.09 1005.60 1005.65 1005.95 1006.38 1006.98 1007.09 1007.11 1006.44 1005.82 1005.23 1004.90 1004.88 1005.69 1006.07 1007.18 1008.50 1009.97 1011.46 1012.62 1014.91 1014.70 1015.66 1014.99 1014.02 1012.83 1012.15 1010.68 1010.50
1020.55 1019.80 1019.26 1018.94 1017.53 1015.44 1012.78 1011.64 1011.21 1011.26 1009.86 1005.84 1005.50 1004.81 1005.46 1006.22 1005.98 1005.60 1005.17 1005.36 1006.50 1006.99 1007.40 1007.12 1006.78 1006.19 1005.54 1004.80 1004.70 1005.52 1006.14 1007.47 1008.84 1010.76 1012.18 1013.40 1014.19 1015.28 1016.06 1016.29 1015.84 1014.32 1012.26 1010.98 1010.84
1020.38 1019.71 1019.37 1018.12 1017.30 1014.42 1013.02 1011.92 1011.83 1011.61 1008.22 1005.72 1005.04 1005.13 1005.84 1006.09 1006.11 1006.01 1005.82 1005.87 1006.38 1007.08 1007.30 1007.29 1006.50 1006.08 1005.17 1004.69 1004.67 1005.08 1006.38 1008.07 1010.00 1011.85 1013.65 1012.73 1013.60 1015.08 1016.08 1015.36 1014.66 1013.42 1011.78 1011.17 1011.05
1019.95 1018.96 1019.26 1017.80 1015.46 1013.26 1012.85 1012.47 1012.06 1010.00 1005.91 1005.81 1005.51 1005.36 1005.96 1006.19 1006.38 1006.43 1006.42 1006.85 1007.53 1007.90 1008.06 1007.44 1006.79 1005.63 1004.96 1004.85 1004.68 1005.30 1007.23 1009.53 1011.63 1013.21 1013.84 1013.28 1013.61 1014.67 1015.16 1014.42 1012.94 1012.16 1011.86 1011.36 1010.82
1019.54 1017.96 1016.24 1015.45 1014.08 1013.44 1013.34 1013.08 1011.38 1008.06 1005.95 1005.03 1005.17 1005.46 1006.22 1006.32 1006.74 1006.80 1007.10 1007.50 1007.49 1008.03 1008.08 1008.05 1007.03 1005.85 1005.02 1004.74 1004.96 1005.76 1008.09 1010.38 1012.34 1013.58 1014.32 1013.98 1014.64 1014.77 1014.41 1013.50 1011.99 1011.62 1011.85 1011.13 1010.83
1019.04 1016.70 1015.38 1013.42 1013.43 1013.56 1013.70 1012.84 1009.99 1007.55 1006.24 1005.41 1005.09 1005.50 1006.00 1006.16 1006.46 1006.91 1007.08 1007.28 1007.21 1007.29 1007.84 1007.86 1007.20 1006.10 1005.81 1004.76 1005.67 1006.86 1008.32 1009.69 1011.88 1013.42 1014.39 1015.08 1014.62 1014.54 1014.98 1015.25 1012.97 1011.96 1011.58 1010.88 1010.93
1019.78 1017.33 1014.48 1011.91 1012.40 1013.23 1013.68 1011.92 1009.34 1007.34 1006.25 1005.66 1005.68 1005.23 1005.60 1005.85 1006.34 1006.66 1006.75 1006.39 1006.55 1006.34 1006.65 1007.23 1007.06 1006.90 1007.07 1006.52 1006.54 1007.39 1008.68 1010.31 1012.24 1014.05 1014.85 1015.61 1015.53 1015.45 1014.29 1013.26 1013.52 1012.83 1011.38 1010.85 1010.55
1019.58 1017.04 1012.48 1011.79 1012.40 1013.31 1013.27 1011.24 1009.04 1006.96 1006.24 1005.98 1005.86 1005.62 1005.13 1005.26 1005.58 1006.00 1006.07 1005.85 1005.63 1005.89 1006.19 1006.60 1007.30 1007.85 1007.80 1008.37 1008.40 1008.66 1009.76 1012.05 1013.36 1014.19 1014.67 1014.92 1015.09 1014.44 1014.63 1013.81 1013.33 1011.94 1011.50 1010.32 1010.48
1019.37 1016.47 1012.26 1011.85 1013.08 1012.85 1012.22 1010.71 1008.75 1007.16 1006.22 1005.88 1005.68 1005.43 1005.07 1005.06 1005.03 1005.46 1005.57 1005.39 1005.16 1005.81 1006.63 1007.12 1007.86 1008.67 1008.80 1008.06 1008.07 1008.91 1010.24 1011.53 1013.58 1013.47 1013.26 1013.55 1014.41 1014.36 1013.61 1013.62 1011.85 1011.75 1011.00 1010.12 1009.87
1020.51 1016.41 1012.59 1012.14 1013.25 1012.81 1011.80 1010.21 1008.60 1007.34 1006.55 1006.00 1005.86 1005.52 1005.47 1005.60 1005.71 1005.50 1005.83 1005.93 1005.96 1006.44 1007.19 1008.06 1008.74 1009.57 1009.37 1008.86 1008.32 1008.58 1009.58 1009.92 1011.32 1011.78 1012.46 1013.62 1014.02 1013.08 1013.28 1013.46 1012.44 1011.96 1010.32 1010.05 1009.98
1021.05 1017.06 1013.75 1012.93 1012.89 1012.85 1012.22 1010.44 1008.73 1007.05 1006.85 1006.42 1006.36 1006.05 1006.05 1006.08 1006.03 1006.31 1006.64 1006.56 1006.80 1007.33 1007.74 1008.27 1009.12 1009.74 1010.36 1009.47 1009.10 1008.90 1008.74 1008.99 1009.98 1010.96 1011.32 1011.96 1012.36 1012.38 1012.92 1012.54 1011.32 1010.57 1009.99 1009.65 1009.96
1020.74 1017.25 1015.46 1014.28 1013.50 1013.02 1012.09 1010.70 1009.26 1007.71 1006.91 1006.72 1006.64 1006.57 1006.88 1007.05 1007.48 1008.22 1007.84 1007.46 1007.81 1008.59 1008.60 1009.06 1009.84 1009.87 1009.66 1010.04 1010.07 1009.88 1009.50 1008.84 1010.08 1009.75 1010.62 1011.59 1011.31 1011.66 1011.16 1011.15 1010.80 1010.24 1009.72 1009.80 1009.83
1020.56 1018.12 1016.50 1015.49 1014.02 1013.08 1011.94 1010.50 1009.56 1008.24 1007.69 1006.88 1006.91 1006.89 1007.19 1008.15 1007.98 1009.03 1009.10 1009.45 1010.10 1010.03 1010.05 1010.08 1010.23 1010.30 1010.46 1010.44 1010.47 1010.20 1010.00 1009.87 1009.73 1011.74 1009.72 1010.17 1011.01 1010.76 1010.78 1010.49 1010.84 1010.84 1010.62 1010.50 1010.29
1020.74 1019.11 1017.85 1016.03 1014.50 1013.45 1012.04 1010.91 1009.72 1008.97 1007.94 1007.05 1007.14 1007.02 1007.13 1008.26 1008.61 1008.18 1008.62 1009.32 1009.94 1011.00 1010.87 1011.40 1011.29 1011.10 1011.26 1011.19 1011.15 1011.02 1010.48 1010.34 1010.27 1010.58 1010.24 1010.62 1011.09 1010.70 1010.92 1011.03 1011.22 1010.93 1010.64 1010.46 1010.29
Wind_Speed
16 15 18 20 19 18 18 17 18 18 15 14 14 12 10 12 13 3 5 4 2 11 4 6 9 9 11 8 10 3 5 1 3 8 5 6 8 2 5 10 4 7 12 12 8
18 17 16 20 22 19 19 18 18 18 16 14 13 11 10 10 4 8 5 8 5 11 3 5 8 1 2 4 6 2 5 3 6 6 3 4 10 9 6 13 6 10 14 12 8
22 20 18 18 21 21 19 20 18 18 17 14 12 11 9 6 5 6 7 8 7 9 4 4 5 3 6 3 6 5 5 5 6 4 1 6 6 4 7 5 11 16 11 10 7
21 23 20 20 19 23 21 20 19 17 17 15 12 11 8 3 3 3 7 7 9 5 7 2 2 1 4 6 7 10 11 8 3 5 3 8 3 6 11 8 13 14 13 9 8
20 21 23 21 21 22 23 20 20 17 16 13 11 10 3 2 10 7 8 7 4 3 7 8 7 4 4 12 6 8 5 7 10 4 7 11 13 4 9 14 13 15 13 11 9
21 20 22 21 22 21 23 21 20 18 14 12 9 7 2 5 4 11 8 7 8 6 9 8 6 7 7 4 4 8 11 13 8 6 4 7 8 8 3 7 12 12 10 9 10
21 21 23 23 23 22 23 23 20 19 13 9 7 4 5 12 7 11 10 7 9 9 8 10 10 7 9 3 7 14 11 13 12 12 5 8 9 4 5 12 10 10 8 8 10
21 23 25 25 25 24 23 24 23 19 10 6 2 2 8 5 6 9 10 10 11 11 9 11 8 7 4 3 8 8 7 3 12 11 8 8 11 15 11 10 9 10 9 8 10
22 23 24 26 26 25 25 29 23 14 6 5 2 3 8 2 3 9 7 7 8 9 8 11 6 8 11 5 4 3 3 9 9 9 7 5 4 11 19 23 7 9 10 10 9
22 23 25 27 28 25 28 21 6 10 4 5 7 4 7 7 7 8 7 5 7 8 10 5 8 5 9 3 4 7 6 5 5 9 17 14 7 12 7 11 9 9 10 7 10
22 24 26 28 30 23 17 8 7 4 2 8 4 8 5 10 5 2 4 6 6 5 7 10 6 6 9 5 5 6 3 6 9 19 21 24 9 5 5 13 14 12 31 4 2
23 25 28 30 31 29 3 5 5 7 9 11 14 17 16 7 6 4 4 4 5 8 9 10 6 4 2 8 5 7 6 5 15 12 14 15 15 6 10 2 14 5 13 9 7
23 24 26 31 35 9 7 7 7 8 3 9 10 9 5 1 4 5 6 5 7 10 12 7 13 16 9 8 4 2 9 6 6 7 7 3 5 6 4 6 9 10 10 7 10
23 24 23 31 6 8 6 9 8 6 3 7 9 8 6 4 5 10 10 8 4 8 9 6 11 19 17 9 8 6 8 9 9 5 1 6 3 2 4 8 9 12 13 7 9
23 23 22 6 7 6 9 10 9 6 3 9 9 7 8 9 2 4 11 4 7 9 5 10 11 16 17 11 6 1 8 6 4 6 7 1 3 3 7 7 21 23 16 8 9
24 23 18 1 4 10 14 9 5 2 6 5 6 9 8 9 8 4 5 6 4 7 10 10 12 8 11 14 6 2 6 6 7 4 1 8 7 2 8 9 18 8 9 7 9
26 29 11 5 6 7 12 6 3 4 4 9 6 7 10 8 7 7 6 2 3 2 4 11 8 12 14 8 9 3 7 4 6 4 7 10 8 3 10 12 16 3 2 4 9
29 30 7 7 8 7 4 4 3 11 4 3 10 11 8 7 9 9 5 2 7 6 2 5 12 9 17 18 11 1 9 6 4 4 3 13 4 2 5 7 7 4 4 5 8
28 4 5 7 12 4 4 2 5 8 11 12 3 8 8 10 7 10 9 7 7 8 8 3 7 13 16 5 11 9 5 7 4 2 5 2 7 1 10 7 14 13 7 7 7
6 5 6 5 7 4 2 6 6 9 7 8 8 5 9 10 9 7 9 10 11 7 6 9 3 5 6 11 13 8 1 7 5 3 3 4 3 3 10 7 1 3 7 4 7
2 4 3 6 5 3 3 7 12 12 4 5 8 8 8 7 13 8 8 6 9 6 3 2 4 6 6 2 4 6 5 9 3 2 4 5 3 3 2 4 7 10 6 7 7
4 4 5 3 2 3 4 6 7 10 9 6 7 7 6 9 8 8 9 8 5 5 2 4 4 2 2 7 4 7 9 8 5 6 6 4 6 4 8 9 17 9 9 5 8
4 5 6 6 2 4 8 13 18 5 10 5 6 7 6 5 6 5 6 3 5 3 4 4 3 3 11 11 5 3 6 3 3 3 3 5 5 11 9 11 15 15 8 3 6
4 4 4 2 4 5 5 11 12 7 7 8 8 10 4 6 3 4 5 5 4 5 5 6 2 2 5 11 4 4 3 9 7 3 1 4 4 6 13 10 2 6 7 4 8
4 5 2 3 4 7 6 9 14 9 7 5 6 7 3 2 8 9 12 6 9 7 3 3 1 5 9 9 7 8 9 13 12 5 8 7 8 3 6 7 5 8 6 7 2
3 4 5 5 8 8 6 4 9 15 8 7 5 7 5 6 10 7 3 5 4 7 5 9 2 4 6 8 7 6 13 13 20 17 6 8 8 5 7 10 12 9 9 5 5
5 7 3 6 6 5 5 7 12 10 13 8 10 6 10 4 10 8 8 7 6 4 4 1 3 2 5 5 4 4 2 2 6 4 5 9 3 8 12 11 6 8 7 7 8
Wind_Direction
357 355 341 337 340 337 336 337 334 331 329 325 324 324 323 318 298 188 239 249 139 137 182 264 234 235 269 301 284 224 46 83 46 111 168 161 117 143 149 131 97 90 107 122 132
352 352 346 337 335 337 333 333 332 328 327 329 327 323 325 335 279 253 179 122 115 165 230 296 327 18 111 296 296 192 131 76 81 100 126 124 141 156 155 131 118 98 110 123 133
343 348 346 341 332 331 332 328 331 326 323 327 325 322 325 320 319 247 145 114 198 204 270 290 299 28 358 332 287 320 127 140 83 49 182 112 125 157 97 106 152 143 141 137 148
341 340 341 337 336 328 328 325 325 324 319 323 324 324 325 241 315 85 143 117 202 246 281 259 229 67 332 304 298 28 8 28 119 129 309 112 262 128 125 150 115 133 138 133 150
341 335 333 334 332 327 322 322 317 318 313 317 323 335 308 233 247 140 132 136 184 259 223 226 206 115 267 264 257 57 312 15 329 327 294 52 44 340 122 113 112 129 132 147 168
334 335 328 331 327 326 318 317 312 309 309 314 322 330 222 265 175 141 170 158 240 215 266 264 308 184 203 85 95 209 38 349 306 313 19 96 86 107 300 4 119 126 148 165 161
330 336 331 329 323 326 318 312 309 302 305 308 320 305 267 240 141 160 188 210 224 216 279 296 307 356 301 105 70 41 19 353 329 25 269 96 7 253 306 325 140 140 156 171 169
335 337 331 327 323 324 316 313 304 294 297 284 291 285 250 273 242 165 207 247 251 252 247 266 278 306 278 214 102 94 68 82 284 259 278 68 306 300 290 313 152 149 170 174 191
337 332 330 323 323 323 320 311 296 285 225 249 283 206 271 259 242 238 226 257 301 313 306 299 259 226 304 292 32 235 189 202 270 289 138 117 201 249 336 324 208 172 184 188 195
333 330 331 323 321 329 323 294 270 330 203 204 252 302 274 259 246 216 199 248 283 307 334 312 307 283 229 132 176 233 229 223 226 327 58 88 132 111 199 232 73 341 327 205 193
335 336 329 323 323 327 341 351 360 24 206 259 312 267 274 251 281 122 243 229 268 306 292 296 333 311 11 211 187 30 267 233 63 105 86 58 1 44 244 48 359 340 0 274 277
336 334 329 326 321 317 238 343 336 245 307 286 273 272 262 312 214 220 259 216 280 270 287 314 272 324 344 294 84 334 335 18 107 111 94 115 238 61 5 118 210 246 248 275 86
336 332 328 326 317 313 327 314 324 17 285 287 228 248 248 187 296 274 224 200 252 282 291 313 305 315 319 312 66 241 26 43 106 103 88 102 9 15 341 307 296 282 264 257 94
333 328 332 329 351 335 295 349 344 13 334 251 188 231 207 209 271 273 277 190 251 274 307 302 328 328 330 339 65 3 11 35 56 70 67 111 79 221 16 317 326 298 304 120 96
327 325 327 316 295 313 294 326 337 43 342 160 172 207 188 186 188 254 256 121 217 275 328 293 325 319 319 295 16 308 60 20 103 44 45 68 184 57 65 346 342 303 273 115 113
323 320 333 113 229 251 292 307 6 29 251 126 146 178 178 204 223 303 10 46 23 331 306 290 298 273 284 318 286 299 67 63 65 101 272 278 161 169 159 153 235 254 337 96 118
321 312 304 276 239 338 313 333 4 231 200 132 170 161 191 191 211 230 175 204 176 274 320 317 294 281 277 303 310 257 68 355 14 25 215 7 58 188 187 194 228 216 234 333 106
320 312 236 213 239 273 327 358 257 279 50 42 153 161 190 198 207 240 128 247 281 247 250 258 314 318 319 297 213 315 119 131 276 327 324 33 303 29 168 248 262 202 250 244 132
313 293 262 241 221 236 45 292 250 330 357 358 291 151 199 204 173 202 196 215 232 211 181 251 277 322 330 11 57 320 63 171 133 105 73 14 299 12 161 215 255 222 268 208 131
317 297 262 266 138 68 46 258 275 302 346 333 328 266 183 192 184 195 211 221 232 241 173 237 324 301 6 10 4 65 339 20 36 353 36 237 220 280 329 335 162 303 116 47 144
251 301 260 131 90 72 212 257 302 313 6 344 316 307 281 196 184 204 199 236 203 230 13 20 100 302 40 32 288 355 12 49 82 177 170 170 239 185 19 52 7 278 234 120 104
311 288 207 98 45 218 224 248 287 325 308 253 288 302 348 341 189 179 195 197 109 94 49 336 135 340 208 247 231 119 136 114 129 271 225 108 265 159 193 213 208 254 254 115 129
303 271 285 118 238 260 306 302 288 285 298 319 327 313 348 337 18 352 81 64 64 88 94 354 353 28 336 346 355 138 195 144 166 303 311 92 264 179 197 221 239 263 121 143 112
288 294 277 149 226 276 302 291 303 215 261 305 305 319 319 318 355 321 128 151 103 91 112 90 345 156 177 235 255 313 282 198 174 124 237 170 201 132 196 204 70 99 170 157 151
240 260 345 329 318 307 232 284 304 309 195 279 296 287 303 28 27 7 7 107 66 25 28 96 274 7 324 38 45 22 336 47 34 344 91 188 86 66 65 77 21 1 343 95 201
293 352 342 288 291 302 296 284 300 298 325 227 260 308 61 311 151 250 55 34 241 338 52 329 252 9 323 7 34 57 35 24 61 323 38 73 59 69 48 48 57 48 35 30 13
337 331 312 281 302 312 275 300 288 293 302 315 357 339 60 205 185 208 151 171 138 218 111 288 337 35 276 26 336 16 244 315 303 352 52 70 70 44 34 23 36 36 19 353 339